Tracking 20093 objects as of 14-Dec-2019
HD Live streaming from Space Station
objects crossing your sky now

COSMOS 2251 DEB

Track COSMOS 2251 DEB now!
10-day predictions


NORAD ID: 34916
Int'l Code: 1993-036ADM
Perigee: 597.1 km
Apogee: 734.9 km
Inclination: 74.1 °
Period: 97.9 minutes
Semi major axis: 7036 km
RCS: 0.0123 m2 (small)
Launch date: June 16, 1993
Source: Commonwealth of Independent States (former USSR) (CIS)
Launch site: PLESETSK MISSILE AND SPACE COMPLEX (PKMTR)

Note: This is SATELLITE DEBRIS
aabbcc
Your satellite tracking list
Your tracking list is empty




NASA's NSSDC Master Catalog

Two Line Element Set (TLE):
1 34916U 93036ADM 19347.52655354 +.00001085 +00000-0 +17052-3 0  9995
2 34916 074.0775 081.2114 0097843 085.9705 287.7192 14.70691985573097
Source of the keplerian elements: AFSPC